STARLINK-5711, 55471

Orbit data source: Space-Track

STARLINK-5711, 55471 is a payload satellite owned by SpaceX/Seattle (US) in LEO that was launched on Thu, 02 Feb 2023 UTC via an FALCON 9 launch vehicle from the Air Force Eastern Test Range (AFETR). Payload-class satellites include a variety of spacecraft equipped with specific instruments for various scientific and technological missions. These include communications satellites like Starlink; space stations such as the ISS; scientific satellites like the Hubble; Earth observation satellites from companies like Planet Labs, Umbra, and HawkEye 360; GPS; miniature CubeSats for education and research; and military/defense satellites.

Loading next visibility...
Identifier
55471, 2023-015Y
Orbit
LEO
Country
Flag of USUS
Related business
Manufacturer
SpaceX/Seattle
Mission
Operational Commercial Communications
Bus & Motor
STARLINK, Unknown motor
Mass
305 kg wet, ~290 kg dry
Launch date (UTC)
2023-02-02 (3 years ago)
Launch vehicle
FALCON 9
Launch site
Air Force Eastern Test Range (AFETR)
Object type
Payload
Rocket body
Debris
Shape & HBR
Box + 1 Pan, 10.1 m
Radar Cross Section
13.562 m², Large (>1 m²)

Expand to show TLE details & history
Last TLE update: 20 hours ago

TLE from 20 hours ago
0 STARLINK-5711
1 55471U 23015Y   26132.23824978  .00000703  00000-0  35073-4 0  9992
2 55471  43.0027 329.5905 0001306 266.5752  93.4950 15.27578811180448
Epoch: 2026-05-12T05:43Z
TLE epoch observation values (Epoch: 2026-05-12T05:43:04.780Z)
Latitude
-0.00002°
Longitude
13.80507°
Altitude
482.883 km
Speed
7.626 km/s
True Right ascension
21h 58m 21s
True Declination
0° 00' 00"
Sunlit
Object was in daylight at epoch
Visualization orbit readout
Latitude
Unknown
Longitude
Unknown
Altitude
Unknown
Speed
Unknown
Apparent Right ascension
Unknown
Apparent Declination
Unknown
Sunlit
N/A
Visualization observer readout
Local Sidereal Time
10:35:18
Azimuth
Unknown
Elevation
Unknown
Doppler factor
Unknown
Orbital elements
Apogee altitude
485.894 km
Perigee altitude
484.101 km
Semi-major axis
6,863.134 km
Eccentricity
0.00013
Inclination
43.0027°
RAAN
329.5905°
Arg. of periapsis
266.5752°
True anomaly
93.50994°
Mean anomaly
93.495°
Eccentric anomaly
93.50247°
Mean motion
3.81733 °/min
Orbital period
94.31 mins
BSTAR
0.000035073
Loading maneuver chart data...
Computing Atmospheric mass density...
Loading historical data...
Loading historical data...
Loading historical data...
Loading historical data...
Loading historical data...
Loading historical data...
Loading historical data...

Documentation

Showing up to 5 results
|